Regional Weather Roundup
Issued by NWS

Home | Current Version | Previous Version | Text Only | Print | Product List | Glossary On
Versions: 1 2 3 4 5 6 7 8 9 10 11 12 13 14 15 16 17 18 19 20 21 22 23 24 25 26 27 28 29 30 31 32 33 34 35 36 37 38 39 40 41 42 43 44 45 46 47 48 49 50
000
ASUS43 KMKX 240711
RWRWI

WISCONSIN REGIONAL WEATHER ROUNDUP
NATIONAL WEATHER SERVICE MILWAUKEE/SULLIVAN WI
200 AM CDT TUE OCT 24 2017

NOTE: "FAIR" INDICATES FEW OR NO CLOUDS BELOW 12,000 FEET WITH NO
SIGNIFICANT WEATHER AND/OR OBSTRUCTIONS TO VISIBILITY.

WIZ001-002-006>008-014>016-023>028-240800-
NORTHWEST WISCONSIN

CITY           SKY/WX    TMP DP  RH WIND       PRES   REMARKS
SUPERIOR ARPT  CLOUDY    44  35  69 N14G22    29.79F
ASHLAND        CLOUDY    44  35  70 NW12G22   29.71F
HAYWARD        CLOUDY    44  34  67 N9G21     29.72F
SIREN          CLOUDY    43  32  64 N12G23    29.79S
CUMBERLAND     CLOUDY    41  32  70 NW22G30   29.73F
RICE LAKE      CLOUDY    44  33  66 NW13G22   29.74F
CHETEK         CLOUDY    44  36  72 NW12G22   29.72S
LADYSMITH      CLOUDY    44  37  76 NW21G26   29.69F
EAU CLAIRE     CLOUDY    45  34  65 NW22G30   29.70F
MENOMONIE      CLOUDY    45  33  62 NW21G29   29.73S
NEW RICHMOND   CLOUDY    43  31  62 NW17G26   29.78F
OSCEOLA        CLOUDY    44  32  63 NW17G26   29.83S
$$

WIZ003>005-009-010-017-018-240800-
NORTH CENTRAL WISCONSIN

CITY           SKY/WX    TMP DP  RH WIND       PRES   REMARKS
MANITOWISH WTR DRIZZLE   41  41 100 NW14G25   29.60F
ARBOR VITAE    CLOUDY    43  41  94 NW20G28   29.59F
WOODRUFF       CLOUDY    43  41  94 NW20G28   29.59F
RHINELANDER    CLOUDY    43  42  97 NW14G25   29.57F
EAGLE RIVER    CLOUDY    43  43 100 NW17      29.56S
LAND O LAKES   CLOUDY    44  43  95 NW17      29.57F
PHILLIPS       CLOUDY    41  39  95 NW7G23    29.63F
TOMAHAWK       LGT RAIN  42  40  93 NW9G26    29.59F
MEDFORD        DRIZZLE   41  38  89 NW20G25   29.60F
MERRILL        RAIN      44  43  96 N13G25    29.58S
$$

WIZ029-030-035-036-043>047-240800-
CENTRAL WISCONSIN

CITY           SKY/WX    TMP DP  RH WIND       PRES   REMARKS
WAUSAU         LGT RAIN  45  42  89 NW12G23   29.55F
MOSINEE        RAIN      43  43 100 NW17G28   29.57S
MARSHFIELD     LGT RAIN  44  40  85 NW15G26   29.59F
STEVENS POINT  RAIN      45  45 100 NW12      29.56S
WAUPACA        DRIZZLE   51  49  93 NW12G17   29.52S
WAUTOMA        LGT RAIN N/A N/A N/A NW14G21   29.53F
WISC RAPIDS    LGT RAIN  47  44  90 N15G23    29.58S
CAMP DOUGLAS   LGT RAIN  45  44  97 NW15G22   29.60F
$$

WIZ011>013-019>022-031-037>040-048>050-240800-
NORTHEAST WISCONSIN

CITY           SKY/WX    TMP DP  RH WIND       PRES   REMARKS
ANTIGO         DRIZZLE   46  43  91 N14G24    29.53S
SHAWANO        DRIZZLE   52  46  80 NW9       29.49S
OCONTO         CLOUDY    49  42  76 N8        29.46S
STURGEON BAY   LGT RAIN  49  45  86 NW9       29.46F
GREEN BAY      CLOUDY    50  46  86 NW8       29.47F
MANITOWOC      LGT RAIN  49  45  86 W9        29.47F
APPLETON       DRIZZLE   50  45  81 NW10      29.48S
CLINTONVILLE   LGT RAIN  52  45  76 N8        29.50F
OSHKOSH        CLOUDY    51  47  86 NW10      29.49F
$$

WIZ032>034-041-042-053>061-240800-
SOUTHWEST WISCONSIN

CITY           SKY/WX    TMP DP  RH WIND       PRES   REMARKS
LA CROSSE      CLOUDY    48  40  73 NW16G29   29.67F
SPARTA         LGT RAIN  43  42  95 NW13      29.66S
VIROQUA        CLOUDY    43  43  99 NW13G21   29.65F
BOSCOBEL       LGT RAIN  47  42  83 W6        29.66F
PRAIRIE DU CHI LGT RAIN  47  35  63 NW12G23   29.68F
PLATTEVILLE    CLOUDY    46  44  94 NW12      29.64F
$$

WIZ056-057-062-063-064-067-068-240800-
SOUTH CENTRAL WISCONSIN

CITY           SKY/WX    TMP DP  RH WIND       PRES   REMARKS
REEDSBURG      RAIN      45  45 100 NW14G20   29.59F
BARABOO/DELLS  RAIN      45  43  93 NW14G23   29.57F
LONE ROCK      LGT RAIN  47  44  90 NW17G26   29.62F
MINERAL POINT  LGT RAIN  46  45  93 NW13G18   29.62S
MADISON        RAIN      47  45  93 NW10G18   29.55F FOG
MIDDLETON      CLOUDY    47  47  98 W17G23    29.56F
WATERTOWN      DRIZZLE   47  47 100 W13       29.51F
MONROE         LGT RAIN  45  43  93 W15       29.58F
JANESVILLE     RAIN      46  46 100 W10G16    29.56F
$$

WIZ051-052-058>065-066-070>072-240800-
SOUTHEAST WISCONSIN

CITY           SKY/WX    TMP DP  RH WIND       PRES   REMARKS
MILWAUKEE      LGT RAIN  51  49  92 W8        29.50F
WAUKESHA       LGT RAIN  45  45 100 W12       29.52F
MILWAUKEE/TIMM DRIZZLE   50  45  81 W8        29.51F
RACINE         LGT RAIN  50  48  93 W9        29.52F
BURLINGTON     RAIN      47  47 100 W10G17    29.52F
KENOSHA        LGT RAIN  49  46  90 W12       29.52F
FOND DU LAC    CLOUDY    50  46  86 NW9       29.50S
SHEBOYGAN      CLOUDY    50  48  93 W9        29.48F
WEST BEND      DRIZZLE   48  46  93 NW7       29.49F
JUNEAU         LGT RAIN  47  46  97 CALM      29.52F
$$

LSZ147-162-240800-
LAKE SUPERIOR

STATION/POSITION TIME  TEMP    WIND        PRES    WAVE
                       AIR SEA DIR/SP/G            HT/PER
                 (UTC) (F)     (DEG/KT/KT) (MB)    (FT/S)
W MID LAKE BUOY  0650   51 51              1002.5F   5/ 5
DEVILS ISLAND    0700   46     340/ 32/ 37 1005.5F
PORT WING        0633          330/ 20/ 28 1007.5F
SAXON HARBOR     0640   48     330/ 25/ 29 1004.7F
$$

LMZ867-665-643>646-240800-
LAKE MICHIGAN

STATION/POSITION TIME  TEMP    WIND        PRES    WAVE
                       AIR SEA DIR/SP/G            HT/PER
                 (UTC) (F)     (DEG/KT/KT) (MB)    (FT/S)
S GREEN BAY BUOY 0700   53 58  320/ 17/ 23  997.7
N MID LAKE BUOY  0650   49 56  340/ 29/ 35  994.5F   4/ 5
NORTHPORT PIER   0700   52     320/ 28      995.9
KEWAUNEE LAKESHO 0648          310/  5/  8  996.9F
SHEBOYGAN LAKESH 0700   51     280/  8/ 12  998.0F
PORT WASHINGTON  0630   52     290/  6/ 14  999.7F
MILWAUKEE LAKESH 0630   51     280/  8/ 11   N/A
S MID LAKE BUOY  0650   54 60  320/ 16/ 19  998.7F
KENOSHA   LAKESH 0700   50     280/ 10/ 14  999.7
$$

TC  - TEMPERATURE IN CELSIUS
VSB - VISIBILITY IN STATUTE MILES
WCI - WIND CHILL INDEX
HX  - HEAT INDEX





USA.gov is the U.S. government's official web portal to all federal, state and local government web resources and services.